Hourly Data Report for October 18, 2015

All times are specified in Local Standard Time (LST). Add 1 hour to adjust for Daylight Saving Time where and when it is observed.

KUGAARUK CLIMATE
NUNAVUT

68°32'15.060" N
89°47'47.020" W
15.80 m
2303094
71407
NBB

Download Data

Hourly Data (October 2015)
Hourly Data Report for October 18, 2015
Temp Definition
°C
Dew Point Temp Definition
°C
Rel Hum Definition
%
Wind Dir Definition
10's deg

Wind Spd Definition
km/h
Visibility Definition
km
Stn Press Definition
kPa
Hmdx Definition


Wind Chill Definition


Weather Definition


TIME
00:00 -7.2 -10.2 80 33 13   100.90   -13 LegendNANA
01:00 -7.7 -11.5 74 29 14   100.87   -14 LegendNANA
02:00 -9.1 -12.1 79 29 20   100.85   -17 LegendNANA
03:00 -10.2 -13.1 80 28 18   100.85   -18 LegendNANA
04:00 -10.4 -13.1 80 27 23   100.82   -19 LegendNANA
05:00 -10.9 -13.6 81 27 24   100.80   -20 LegendNANA
06:00 -10.9 -13.5 81 26 16   100.79   -18 LegendNANA
07:00 -10.7 -13.3 81 25 16   100.76   -18 LegendNANA
08:00 -10.7 -13.4 81 25 17   100.73   -18 LegendNANA
09:00 -11.4 -14.4 79 24 19   100.71   -19 LegendNANA
10:00 -10.4 -13.5 78 24 23   100.70   -19 LegendNANA
11:00 -10.1 -12.7 81 23 21   100.69   -18 LegendNANA
12:00 -9.7 -12.3 81 24 12   100.71   -16 LegendNANA
13:00 -9.9 -11.9 85 24 11   100.71   -15 LegendNANA
14:00 -9.6 -11.5 86 23 4   100.72   -12 LegendNANA
15:00 -9.3 -12.1 81 5 13   100.71   -15 LegendNANA
16:00 -9.8 -12.4 82 7 10   100.73   -15 LegendNANA
17:00 -10.2 -12.6 82 11 11   100.75   -16 LegendNANA
18:00 -10.0 -13.3 76 9 10   100.75   -15 LegendNANA
19:00 -9.9 -13.1 77 6 13   100.75   -16 LegendNANA
20:00 -10.5 -13.8 77 7 11   100.72   -16 LegendNANA
21:00 -11.8 -14.9 78 2 2   100.74   -13 LegendNANA
22:00 -11.4 -13.2 87 9 5   100.74   -15 LegendNANA
23:00 -11.7 -13.2 88 12 8   100.75   -16 LegendNANA

Notes on Data Quality.

Legend

  • E = Estimated
  • M = Missing
  • NA = Not Available
  • ‡ = Partner data that is not subject to review by the National Climate Archives
Date modified: